Regional Weather Roundup
Issued by NWS

Home | Current Version | Previous Version | Text Only | Print | Product List | Glossary Off
Versions: 1 2 3 4 5 6 7 8 9 10 11 12 13 14 15 16 17 18 19 20 21 22 23 24 25 26 27 28 29 30 31 32 33 34 35 36 37 38 39 40 41 42 43 44 45 46 47 48 49 50

921
ASUS44 KMEG 160110
RWRTN
TENNESSEE HOURLY STATE WEATHER ROUNDUP
NATIONAL WEATHER SERVICE MEMPHIS TN
700 PM CST MON JAN 15 2018

TNZ002-004-019-021-049-052-054-088>092-160200-
WEST TENNESSEE

CITY           SKY/WX    TMP DP  RH WIND       PRES   REMARKS
MEMPHIS INTL   LGTSLEET  35  29  78 N10       30.44R WCI  27
NWS MEMPHIS      N/A     34 N/A N/A MISG        N/A
JACKSON        CLOUDY    33  29  85 NW8       30.40F WCI  26
DYERSBURG      FLURRIES  30  27  88 NW9       30.45R WCI  22
SOMERVILLE     CLOUDY    34  28  80 NW10      30.40R WCI  26
COVINGTON      CLOUDY    32  28  86 N10       30.45R WCI  24
UNION CITY     FOG       30  28  93 NW6       30.42R VSB 1   WCI  24
BOLIVAR        CLOUDY    34  28  80 NW7       30.39R WCI  28
PARIS          CLOUDY    30  28  93 NW3       30.39S FOG
HUNTINGDON     CLOUDY    32  30  93 NW7       30.39F WCI  26
LEXINGTON      CLOUDY    34  27  75 N6        30.38S WCI  29
SELMER         CLOUDY    36  27  69 N6        30.36F WCI  31
SAVANNAH       CLOUDY    36  27  69 NE7       30.36F WCI  30
$$

TNZ008-025-027-028-033-062-065-066-160200-
NORTH MIDDLE TENNESSEE

CITY           SKY/WX    TMP DP  RH WIND       PRES   REMARKS
NASHVILLE      CLOUDY    37  25  61 NW12      30.37R WCI  29
PORTLAND       CLOUDY    30  28  93 NW6       30.36R WCI  24
CLARKSVILLE    CLOUDY    31  27  85 NW7       30.39R WCI  24
SMYRNA         FAIR      38  25  59 NW8       30.37R WCI  32
COOKEVILLE     MOCLDY    39  23  52 S7        30.32S WCI  34
GALLATIN       CLOUDY    34  28  80 NW8       30.39R WCI  27
CROSSVILLE     FAIR      34  19  54 CALM      30.33R
$$

TNZ061-075-076-078-094-096-097-160200-
SOUTH MIDDLE TENNESSEE

CITY           SKY/WX    TMP DP  RH WIND       PRES   REMARKS
FAYETTEVILLE   CLEAR     39  21  48 CALM      30.34R
TULLAHOMA      PTCLDY    34  21  60 CALM      30.33S
WINCHESTER       N/A     34  23  64 CALM      30.36R
MCMINNVILLE    PTCLDY    39  21  48 CALM      30.33S
COLUMBIA       MOCLDY    39  25  56 VRB5      30.34R
SHELBYVILLE    CLEAR     37  23  56 CALM      30.34S
$$

TNZ017-018-042-046-047-160200-
NORTHEAST TENNESSEE

CITY           SKY/WX    TMP DP  RH WIND       PRES   REMARKS
TRI CITIES     FAIR      29  24  82 CALM      30.35S
ELIZABETHTON   FAIR      28  25  86 CALM      30.36R
$$

TNZ012-013-036-069-073-074-160200-
CENTRAL EAST TENNESSEE

CITY           SKY/WX    TMP DP  RH WIND       PRES   REMARKS
KNOXVILLE      FAIR      36  23  59 S3        30.34F
OAK RIDGE      FAIR      33  23  66 CALM      30.36S
DOWNTOWN KNOXV   N/A     34  27  75 CALM      30.36S
GATLINBURG     PTCLDY    32  23  69 CALM      30.36S
MORRISTOWN     MOCLDY    34  21  60 S5        30.34S WCI  30
JACKSBORO      MOCLDY    34  23  64 CALM      30.37S
$$

TNZ083-085-099-160200-
SOUTHEAST TENNESSEE

CITY           SKY/WX    TMP DP  RH WIND       PRES   REMARKS
CHATTANOOGA    FAIR      42  23  46 S3        30.37S
DAYTON         MOCLDY    32  27  80 CALM      30.35F
$$

SKY/WX REPORTED AS FAIR MEANS FEW OR NO CLOUDS BELOW
12 THOUSAND FEET.





USA.gov is the U.S. government's official web portal to all federal, state and local government web resources and services.